Simultaneous Nadir Overpasses (SNOs) Predictions

Prediction of SNOs between METOP-B and NOAA-19 Satellite Orbit:

Table of predicted SNOs for the next 14.0 days since TLE Epoch: 5/30/2020
Index Date (METOP-B) Time (METOP-B) Lat,Lon (METOP-B) SZA (METOP-B ) Date (NOAA-19) Time (NOAA-19) Lat,Lon (NOAA-19) SZA (NOAA-19 ) Distance(km) Time Diff (sec)
1 05/30/2020 16:29:16 80.01, -44.98 58.91 05/30/2020 16:28:19 80.00, -45.09 58.87 2.69 57
2 05/30/2020 17:19:58 -79.99, 122.16 121.13 05/30/2020 17:19:16 -80.01, 122.02 121.14 3.28 42
3 05/30/2020 18:10:38 80.00, -70.45 58.88 05/30/2020 18:10:19 79.98, -70.41 58.86 1.90 19
4 05/30/2020 19:01:20 -79.98, 96.69 121.16 05/30/2020 19:01:16 -80.00, 96.71 121.15 1.64 4
5 05/30/2020 19:52:00 79.99, -95.92 58.85 05/30/2020 19:52:20 79.99, -96.03 58.85 2.32 20
6 05/30/2020 20:42:41 -80.00, 71.52 121.14 05/30/2020 20:43:16 -79.98, 71.40 121.16 2.99 35
7 05/30/2020 21:33:22 79.97,-121.39 58.82 05/30/2020 21:34:20 79.98,-121.34 58.84 1.08 58
8 05/30/2020 22:24:03 -79.99, 46.05 121.18 05/30/2020 22:25:16 -79.97, 46.09 121.17 2.18 73
9 06/10/2020 16:51:56 -80.03, 129.53 122.27 06/10/2020 16:50:46 -80.02, 129.40 122.31 2.50 70
10 06/10/2020 17:42:36 80.03, -63.20 57.72 06/10/2020 17:41:47 80.02, -63.28 57.69 1.75 49
11 06/10/2020 18:33:18 -80.02, 104.06 122.30 06/10/2020 18:32:46 -80.01, 104.09 122.31 1.15 32
12 06/10/2020 19:23:58 80.01, -88.67 57.69 06/10/2020 19:23:47 80.00, -88.59 57.69 1.65 11
13 06/10/2020 20:14:40 -80.00, 78.59 122.32 06/10/2020 20:14:47 -80.02, 78.47 122.32 2.73 7
14 06/10/2020 21:05:20 80.00,-114.14 57.67 06/10/2020 21:05:48 80.01,-114.22 57.68 2.36 28
15 06/10/2020 21:56:02 -79.99, 53.12 122.35 06/10/2020 21:56:47 -80.00, 53.16 122.32 1.58 45
16 06/10/2020 22:46:42 79.99,-139.61 57.64 06/10/2020 22:47:48 80.00,-139.54 57.68 2.06 66




NCC Satellite Simultaneous Nadir Overpasses (SNOs) Prediction Service
